Home > Weather > Wellington > Past weeks

Flag for New Zealand Past Weather in Wellington, New Zealand — Yesterday and Last 2 Weeks

Now
50 °F

Rain. Overcast.


Feels Like: 44 °F
Forecast: 48 / 51 °F
Wind: 16 mph from Southwest

Location: Wellington Airport

Current Time: May 31, 2016 at 2:43:24 AM

Latest Report: May 31, 2016 at 2:00 AM


Visibility: 2 mi

Pressure: 29.62 "Hg

Humidity: 88%

Dew Point: 46 °F

Location of WellingtonLocation

Past Weather in Wellington — Graph

°F

Wellington Temperature Yesterday

Maximum temperature yesterday: 55 °F (at 12:30 PM)
Minimum temperature yesterday: 46 °F (at 5:30 AM)
Average temperature yesterday: 53 °F

High & Low Weather Summary for the Past Weeks

 TemperatureHumidityPressure
High64 °F (May 16, 11:00 AM)100% (May 24, 2:00 AM)30.01 "Hg (May 24, 2:00 AM)
Low41 °F (May 22, 11:00 PM)45% (May 18, 8:30 PM)29.09 "Hg (May 25, 12:00 AM)
Average55 °F72%29.44 "Hg
* Reported May 16 1:00 AM — May 31 1:00 AM, Wellington, Weather by CustomWeather, © 2016

Note: Actual official high and low records may vary slightly from our data, if they occured in-between our weather recording intervals... More about our weather records

Advertising

Wellington Weather History for the Previous 24 Hours

Scroll right to see more
 ConditionsComfort  
Time TempWeatherWind HumidityBarometerVisibility
1:00 AM
Tue, May 31
52 °FOvercast.15 mph72%29.62 "HgN/A
12:30 AM52 °FMostly cloudy.15 mph72%29.62 "HgN/A
12:00 AM52 °FMostly cloudy.15 mph72%29.62 "HgN/A
11:30 PM
Mon, May 30
52 °FMostly cloudy.16 mph72%29.62 "HgN/A
11:00 PM52 °FPartly cloudy.14 mph72%29.62 "HgN/A
10:30 PM52 °FSprinkles. Passing clouds.16 mph72%29.62 "HgN/A
10:00 PM52 °FSprinkles. Mostly cloudy.14 mph77%29.62 "HgN/A
9:30 PM54 °FOvercast.14 mph67%29.62 "HgN/A
9:00 PM54 °FOvercast.14 mph67%29.62 "HgN/A
8:30 PM52 °FMostly cloudy.14 mph72%29.62 "HgN/A
8:00 PM54 °FMostly cloudy.14 mph67%29.62 "HgN/A
7:30 PM54 °FMostly cloudy.12 mph63%29.62 "HgN/A
7:00 PM54 °FMostly cloudy.12 mph67%29.62 "HgN/A
6:30 PM54 °FPassing clouds.10 mph63%29.62 "HgN/A
6:00 PM54 °FOvercast.10 mph63%29.62 "HgN/A
5:30 PM54 °FMostly cloudy.8 mph63%29.62 "HgN/A
5:00 PM52 °FMostly cloudy.8 mph67%29.59 "HgN/A
4:30 PM54 °FPartly cloudy.10 mph63%29.59 "HgN/A
4:00 PM54 °FPassing clouds.7 mph63%29.59 "HgN/A
3:30 PM54 °FScattered clouds.10 mph63%29.59 "HgN/A
3:00 PM54 °FPartly sunny.8 mph58%29.59 "HgN/A
2:30 PM55 °FRefreshingly cool.8 mph59%29.59 "HgN/A
2:00 PM55 °FCool.8 mph63%29.59 "HgN/A
1:30 PM55 °FCool.9 mph63%29.59 "HgN/A
1:00 PM55 °FCool.6 mph63%29.59 "HgN/A
12:30 PM55 °FCool.6 mph63%29.59 "HgN/A
12:00 PM54 °FCool.6 mph72%29.62 "HgN/A
11:30 AM54 °FCool.7 mph72%29.62 "HgN/A
11:00 AM54 °FCool.9 mph72%29.62 "HgN/A
10:30 AM54 °FCool.10 mph72%29.62 "HgN/A
10:00 AM54 °FCool.9 mph72%29.59 "HgN/A
9:30 AM52 °FScattered clouds.9 mph77%29.59 "HgN/A
9:00 AM54 °FCool.14 mph67%29.59 "Hg6 mi
8:30 AM54 °FCool.15 mph67%29.59 "Hg6 mi
8:00 AM54 °FCool.15 mph67%29.56 "HgN/A
7:30 AM54 °FCool.14 mph67%29.56 "HgN/A
7:00 AM54 °FPassing clouds.14 mph67%29.56 "HgN/A
6:30 AM54 °FCool.16 mph63%29.53 "HgN/A
6:00 AM52 °FPassing clouds.13 mph67%29.53 "HgN/A
5:30 AM46 °FPassing clouds.3 mph82%29.53 "HgN/A
5:00 AM54 °FCool.9 mph77%29.50 "HgN/A
4:30 AM54 °FPassing clouds.7 mph72%29.50 "HgN/A
4:00 AM52 °FPassing clouds.7 mph77%29.50 "HgN/A
3:30 AM52 °FPassing clouds.6 mph72%29.47 "HgN/A
3:00 AM54 °FPassing clouds.12 mph67%29.47 "HgN/A
2:30 AM54 °FPassing clouds.7 mph67%29.47 "HgN/A
2:00 AM54 °FMostly cloudy.7 mph67%29.47 "HgN/A
Weather by CustomWeather, © 2016

See weather overviewHow to use our weather pages